Tracking 19286 objects as of 18-Nov-2018
HD Live streaming from Space Station
objects crossing your sky now

O3B PFM

Track O3B PFM now!
10-day predictions
O3B PFM is classified as:


NORAD ID: 39191
Int'l Code: 2013-031D
Perigee: 8,064.7 km
Apogee: 8,081.5 km
Inclination: 0.0 °
Period: 287.9 minutes
Semi major axis: 14444 km
RCS: Unknown
Launch date: June 25, 2013
Source: O3b Networks (O3B)
Launch site: FRENCH GUIANA (FRGUI)

O3b satellites will reach customers across the planet between 45 degrees north and south latitude. O3b offers the benefits of fiber-optic lines without the costs to maintain them.
aabbcc
Your satellite tracking list
Your tracking list is empty




NASA's NSSDC Master Catalog

Two Line Element Set (TLE):
1 39191U 13031D   18321.32090131 -.00000020 +00000-0 +00000-0 0  9998
2 39191 000.0385 019.6364 0005828 262.1152 078.1895 05.00112765098510
Source of the keplerian elements: AFSPC